Regional Weather Roundup
Issued by NWS

Home | Current Version | Previous Version | Graphics & Text | Print | Product List | Glossary Off
Versions: 1 2 3 4 5 6 7 8 9 10 11 12 13 14 15 16 17 18 19 20 21 22 23 24 25 26 27 28 29 30 31 32 33 34 35 36 37 38 39 40 41 42 43 44 45 46 47 48 49 50

604
ASUS43 KTOP 192208
RWRKS

WEATHER ROUNDUP FOR KANSAS
NATIONAL WEATHER SERVICE GOODLAND KS
500 PM CDT THU OCT 19 2017

NOTE:  "FAIR" INDICATES FEW OR NO CLOUDS BELOW 12,000 FEET WITH NO
SIGNIFICANT WEATHER AND/OR OBSTRUCTIONS TO VISIBILITY.

KSZ001>006-013>018-027>032-041>047-192300-
NORTHWEST KANSAS

CITY           SKY/WX    TMP DP  RH WIND       PRES   REMARKS
GOODLAND       SUNNY     78  44  29 S16G28    29.94S
HAYS           SUNNY     82  43  25 S16       29.96
HILL CITY      SUNNY     83  44  25 S18G26    29.95S
RUSSELL        SUNNY     82  40  22 S17       29.96S
$$

KSZ061>065-074>080-084>089-192300-
SOUTHWEST KANSAS

CITY           SKY/WX    TMP DP  RH WIND       PRES   REMARKS
DODGE CITY     SUNNY     79  40  24 S22G29    29.98F
ELKHART          N/A     77  47  34 S21         N/A
GARDEN CITY    CLOUDY    78  42  27 SE16G23   29.96S
GREAT BEND     SUNNY     78  43  28 S20       29.99R
LIBERAL        PTSUNNY   78  44  29 S21G31    29.97S
PRATT          MOSUNNY   78  43  29 S18       30.01F
$$

KSZ066>073-081>083-090>101-192300-
SOUTHEAST KANSAS

CITY           SKY/WX    TMP DP  RH WIND       PRES   REMARKS
CHANUTE        MOSUNNY   75  54  47 S12       30.09S
COFFEYVILLE    CLOUDY    77  54  44 S14       30.09S
HUTCHINSON     SUNNY     76  49  38 S15       30.01F
MEDICINE LODGE   N/A     78  47  33 S7        30.00S
NEWTON         SUNNY     76  47  35 S14       30.04S
PARSONS        MOSUNNY   76  52  43 S7        30.10F
WICHITA INTL   MOSUNNY   78  46  32 S18       30.03S
WICHITA JABRA  SUNNY     78  48  34 S14G21    30.03F
WICHITA MCCONL SUNNY     79  45  29 S17       30.04S
WINFIELD       SUNNY     77  50  38 S15G21    30.06F
$$

KSZ007>012-019>026-033>040-048>060-102>105-192300-
NORTHEAST KANSAS

CITY           SKY/WX    TMP DP  RH WIND       PRES   REMARKS
CONCORDIA      SUNNY     80  48  32 S15       29.97F
EMPORIA        SUNNY     78  49  35 S17       30.04S
LAWRENCE       SUNNY     79  53  40 SE13      30.04S
MANHATTAN      SUNNY     82  50  32 S12       29.99F
MARYSVILLE     SUNNY     81  50  34 S10G17    29.99F
OLATHE IND     SUNNY     77  52  41 S14G20    30.07S
OLATHE EXE     SUNNY     77  51  40 S10       30.07S
SALINA         SUNNY     82  48  30 S14G23    29.99F
TOPEKA BILLARD SUNNY     80  52  37 S10       30.03S
TOPEKA FORBES  SUNNY     80  52  37 S10       30.03S
$$




USA.gov is the U.S. government's official web portal to all federal, state and local government web resources and services.